Regional Weather Roundup
Issued by NWS

Home | Current Version | Previous Version | Graphics & Text | Print | Product List | Glossary On
Versions: 1 2 3 4 5 6 7 8 9 10 11 12 13 14 15 16 17 18 19 20 21 22 23 24 25 26 27 28 29 30 31 32 33 34 35 36 37 38 39 40 41 42 43 44 45 46 47 48 49 50
000
ASUS43 KLOT 021810
RWRIL

ILLINOIS REGIONAL WEATHER ROUNDUP
NATIONAL WEATHER SERVICE CHICAGO/ROMEOVILLE IL
1200 PM CST MON MAR 02 2015

NOTE: "FAIR" INDICATES FEW OR NO CLOUDS BELOW 12,000 FEET WITH NO
SIGNIFICANT WEATHER AND/OR OBSTRUCTIONS TO VISIBILITY.

* THESE STATIONS ARE NOT UNDER NWS QUALITY CONTROL. THEY ALSO MAY NOT
  REPORT WEATHER SUCH AS PRECIPITATION OR FOG.

ILZ001-002-007-009-015-016-024-021900-
NORTHWEST ILLINOIS

CITY           SKY/WX    TMP DP  RH WIND       PRES   REMARKS
MOLINE         SUNNY     30  13  49 CALM      30.51F
6HR MIN TEMP:   2; 6HR MAX TEMP:  30;

STERLING*      SUNNY     23  16  74 SE3       30.52F
SAVANNA*       MOSUNNY   30  14  52 CALM      30.52F
$$

ILZ003-004-008-010-011-017-018-021900-
NORTH CENTRAL ILLINOIS

CITY           SKY/WX    TMP DP  RH WIND       PRES   REMARKS
ROCKFORD       PTSUNNY   27  12  53 CALM      30.52F
6HR MIN TEMP:   5; 6HR MAX TEMP:  27;

FREEPORT*      SUNNY     24  13  65 CALM      30.53S
ROCHELLE*      SUNNY     20  14  79 CALM      30.52F
DE KALB*       SUNNY     22  11  65 CALM      30.51F
PERU*          SUNNY     25  16  66 N3        30.53F
$$

ILZ005-006-012>014-019>023-021900-
NORTHEAST ILLINOIS

CITY           SKY/WX    TMP DP  RH WIND       PRES   REMARKS
CHICAGO-OHARE  PTSUNNY   27  11  51 CALM      30.51F
6HR MIN TEMP:  13; 6HR MAX TEMP:  29;

CHICAGO-MIDWAY PTSUNNY   31  12  45 CALM      30.52F
6HR MIN TEMP:  16; 6HR MAX TEMP:  31;

AURORA         SUNNY     24  13  62 NW5       30.52F WCI  18
6HR MIN TEMP:   1; 6HR MAX TEMP:  24;

LANSING*       SUNNY     28  14  57 S3        30.52F
JOLIET*        SUNNY     27  13  53 CALM      30.52F
WAUKEGAN       SUNNY     26   9  48 W5        30.50F WCI  20
6HR MIN TEMP:  10; 6HR MAX TEMP:  26;

DUPAGE AIRPORT SUNNY     28  11  48 N5        30.50F WCI  23
6HR MIN TEMP:  10; 6HR MAX TEMP:  28; 6HR PCP: TRACE;

KANKAKEE*      SUNNY     25  16  69 CALM      30.54F
WHEELING       SUNNY     27  10  49 CALM      30.53S
6HR MIN TEMP:  13; 6HR MAX TEMP:  28;

MORRIS*        SUNNY     22  15  74 CALM      30.53S
ROMEOVILLE*    SUNNY     28  12  53 CALM      30.52S
NORTHERLY ISL    N/A     26  15  63 E5          N/A  WCI  21
$$

LMZ740>746-021900-
SOUTHERN LAKE MICHIGAN

STATION/POSITION SKY/WX   TEMP    WIND        PRES    VSBY  WAVE
                          AIR SEA DIR/SP/G                  HT/PER
                          (F)     (DEG/KT/KT) (MB)    (MI)  (FT/S)
WAUKEGAN HARBOR            26      CALM  / 11   N/A
HARRISON CRIB              24      20/  6/  9   N/A
BURNHAM HARBOR             27      70/  3/  5   N/A
CALUMET HARBOR             26      50/  5/  6 1032.4S
MICHIGAN CITY              30     290/  3/  4   N/A
$$

ILZ025>027-034>036-040-047-049-050-058-095>099-021900-
WEST-CENTRAL ILLINOIS

CITY           SKY/WX    TMP DP  RH WIND       PRES   REMARKS
QUINCY         PTSUNNY   31  18  58 CALM      30.51S
GALESBURG*     MOSUNNY   24  16  69 CALM      30.51F
MACOMB*        MOSUNNY   24  17  74 CALM      30.53F
JACKSONVILLE*  PTSUNNY   30  19  64 E5        30.52S WCI  25
PITTSFIELD*    MOSUNNY   31  20  63 SE7       30.53S WCI  25
$$

ILZ028>032-037-038-041>044-048-051>054-059>061-021900-
CENTRAL ILLINOIS

CITY           SKY/WX    TMP DP  RH WIND       PRES   REMARKS
PONTIAC        MOSUNNY   24  16  73 NE3       30.55S
BLOOMINGTON    MOSUNNY   26  17  68 E10       30.51F WCI  16
DECATUR        PTSUNNY   27  17  66 E7        30.52F WCI  19
PEORIA         PTSUNNY   30  16  56 CALM      30.51F
6HR MIN TEMP:  17; 6HR MAX TEMP:  32;

LACON*         MOSUNNY   27  14  57 CALM      30.52F
LINCOLN*       PTSUNNY   28  17  64 E3        30.54F
SPRINGFIELD    PTSUNNY   32  21  64 CALM      30.52F
6HR MIN TEMP:  10; 6HR MAX TEMP:  35;

TAYLORVILLE    PTSUNNY   28  19  69 N6        30.53S WCI  22
$$

ILZ033-039-045-046-055>057-062-063-021900-
EAST-CENTRAL ILLINOIS

CITY           SKY/WX    TMP DP  RH WIND       PRES   REMARKS
CHAMPAIGN      MOSUNNY   24  16  71 E6        30.52F WCI  17
RANTOUL*       MOSUNNY   27  17  65 E7        30.53S WCI  20
MATTOON        MOSUNNY   26  17  68 N8        30.51F WCI  18
PARIS*         MOSUNNY   24  17  73 CALM      30.54F
$$

ILZ079-100>102-021900-
SOUTHWEST ILLINOIS

CITY           SKY/WX    TMP DP  RH WIND       PRES   REMARKS
ALTON          MOSUNNY   34  16  47 E7        30.53  WCI  28
BELLEVILLE     SUNNY     32  19  57 E5        30.52F WCI  28
CAHOKIA*       LGT RAIN  34  17  50 E12       30.53F WCI  25
SPARTA*        SUNNY     31  18  60 E9        30.53F WCI  22
$$

ILZ064>066-069>071-074>076-080>082-084>086-088>090-092>094-021900-
SOUTH-CENTRAL ILLINOIS

CITY           SKY/WX    TMP DP  RH WIND       PRES   REMARKS
CARBONDALE     SUNNY     36  20  52 NE12      30.51F WCI  28
6HR MIN TEMP:  21; 6HR MAX TEMP:  36;

CAIRO*         MOSUNNY   37  20  51 NE12      30.50F WCI  29
EFFINGHAM*     MOSUNNY   32  16  51 E7        30.54F WCI  26
MARION         PTSUNNY   36  21  55 NE9       30.52F WCI  29
MT. VERNON     SUNNY     30  18  59 NE13      30.54F WCI  20
CENTRALIA*     SUNNY     32  19  59 NE6       30.53F WCI  26
SALEM*         SUNNY     33  20  57 E7        30.53F WCI  27
METROPOLIS*    SUNNY     37  19  48 E7        30.49F WCI  31
$$

ILZ067-068-072-073-078-083-087-091-021900-
SOUTHEAST ILLINOIS

CITY           SKY/WX    TMP DP  RH WIND       PRES   REMARKS
LAWRENCEVILLE  SUNNY     30  18  60 NE7       30.55F WCI  23
FLORA*         SUNNY     30  18  61 NE8       30.55S WCI  23
FAIRFIELD*     SUNNY     31  18  57 NE6       30.54S WCI  26
HARRISBURG*    SUNNY     34  22  61 NE9       30.54F WCI  26
ROBINSON*      SUNNY     29  19  66 CALM      30.55F
CARMI*         SUNNY     35  24  65 NE9       30.53F WCI  28
$$

ABBREVIATIONS USED IN REMARKS
   TC - TEMPERATURE IN CELSIUS
  WCI - WIND CHILL INDEX
   HX - HEAT INDEX
  VSB - VISIBILITY
$$




USA.gov is the U.S. government's official web portal to all federal, state and local government web resources and services.